Location: Hochstatterhof
(48.7256°N, 10.3487°E)
Time: 03:03:42
(UTC+00:00)

Iridium 4 Rocket - Pass Details

Date: 26 September 2023
Orbit: 583 x 898 km, 86.9° (Epoch: 04 December)

Event Time Altitude Azimuth Distance (km) Brightness Sun altitude
Rises 01:56:40 0° 358° (N) 3,409 7.3 -30.5°
Reaches altitude 10° 01:59:12 10° 1° (N) 2,429 6.5 -30.2°
Enters shadow 02:04:19 65° 61° (ENE) 849 3.8 -29.5°
